Regional Weather Roundup
Issued by NWS Charleston, SC

Current Version | Previous Version | Graphics & Text | Print | Product List | Glossary On
Versions: 1 2 3 4 5 6 7 8 9 10 11 12 13 14 15 16 17 18 19 20 21 22 23 24 25 26 27 28 29 30 31 32 33 34 35 36 37 38 39 40 41 42 43 44 45 46 47 48 49 50
000 ASUS42 KCHS 230427 RWRCHS REGIONAL WEATHER ROUNDUP NATIONAL WEATHER SERVICE CHARLESTON SC 1200 AM EDT SUN APR 23 2017 NOTE: "FAIR" INDICATES FEW OR NO CLOUDS BELOW 12,000 FEET WITH NO SIGNIFICANT WEATHER AND/OR OBSTRUCTIONS TO VISIBILITY. NOT ALL STATIONS ARE QUALITY CONTROLLED. USE DATA WITH CAUTION... ESPECIALLY DEWPOINT OBSERVATIONS. SCZ027-030-031-034>040-042>050-230500- ...SOUTHEAST SOUTH CAROLINA... CITY SKY/WX TMP DP RH WIND PRES REMARKS N CHARLESTON CLEAR 70 66 87 S7 29.91S WATERFRONT PRK N/A 73 70 90 SW9 29.89S JOHNS ISLAND FAIR 72 70 94 SW6 29.92S PINOPOLIS N/A 72 66 83 S6 29.82S MONCKS CORNER FAIR 68 64 88 S6 29.90F SUMMERVILLE FAIR 68 64 88 CALM 29.92S BEAUFORT MCAS CLEAR 73 69 87 S7 29.91R BEAUFORT ARPT FAIR 72 68 88 S9 29.91S HILTON HEAD IS CLEAR 73 70 88 S9 29.92S WALTERBORO CLEAR 68 64 88 SE5 29.91F ALLENDALE MOCLDY 72 64 78 CALM 29.89S ...SOUTHERN MIDLANDS AND PEE DEE... CITY SKY/WX TMP DP RH WIND PRES REMARKS GEORGETOWN FAIR 70 68 94 S7 29.92S KINGSTREE FAIR 68 61 77 CALM 29.90S ORANGEBURG CLEAR 70 64 81 S8 29.89S BARNWELL FAIR 73 66 78 S6 29.89S AIKEN FAIR 68 57 68 S7 29.91F MANNING FAIR 70 63 78 SW16G28 29.90S COLUMBIA PTCLDY 75 64 68 SW5 29.87S SUMTER MOCLDY 73 62 68 S10 29.86S FLORENCE MOCLDY 71 63 75 SW7 29.89R MYRTLE BEACH NOT AVBL N MYRTLE BEACH CLEAR 71 68 90 SW14 29.90S $$ GAZ063-065-086>088-099>101-113>116-118-119-134>141-150-230500- ...SOUTHEAST GEORGIA... CITY SKY/WX TMP DP RH WIND PRES REMARKS SAVANNAH ARPT CLEAR 72 65 78 S9 29.91S HUNTER AAF CLEAR 72 72 99 S6 29.89S FORT STEWART CLEAR 68 64 88 CALM 29.89S FOG STATESBORO CLEAR 73 63 72 S8 29.90S SYLVANIA CLEAR 73 64 73 S3 29.91S CLAXTON FAIR 71 68 88 SE5 29.90S ...CSRA...CENTRAL AND FAR SOUTHEAST GEORGIA... CITY SKY/WX TMP DP RH WIND PRES REMARKS THOMSON CLEAR 64 59 84 CALM 29.92S AUGUSTA-BUSH MOCLDY 68 61 78 SE5 29.87R AUGUSTA-DANIEL PTCLDY 76 51 41 CALM 29.88S SWAINSBORO MOCLDY 72 61 68 S5 29.90S VIDALIA MOCLDY 72 64 78 S5 29.90R EASTMAN FAIR 74 47 37 SW3 29.91S HAZLEHURST FAIR 73 65 75 S5 29.89S ALMA CLEAR 66 63 90 CALM 29.90R WAYCROSS CLEAR 73 69 87 S6 29.90F JESUP FAIR 70 63 78 S3 29.91S BAXLEY FAIR 70 70 100 CALM 29.90S BRUNSWICK MOCLDY 73 70 88 S3 29.92F SAINT SIMONS MOCLDY 74 68 81 S9 29.91S $$ SCZ027-028-034-036>038-045-046-048>050-GAZ119-141-230500- ...LAKE AND SUPPLEMENTAL COASTAL OBSERVATIONS... STATION/POSITION TIME TEMP WIND PRES WAVE SWELL AIR SEA DIR/SP/G HT/PER HT/PER/DIR (UTC) (F) (DEG/KT/KT) (MB) (FT/S) (FT/S/D) WINYAH BAY 0345 72 220/ 8 1013.0R LAKE MURRAY 0420 74 190/ 9/ 14 1010.8 ACE BASIN NERRS 0330 73 180/ 1 1013.0R FORT PULASKI 0400 73 74 210/ 8/ 12 1013.1 SAPELO ISLAND 0345 73 180/ 9 1013.0S $$ ANZ835-935-AMZ111-154-330-350-352-354-370-450-454-472-230500- ...C-MAN AND BUOY OBSERVATIONS... STATION/POSITION TIME TEMP WIND PRES WAVE SWELL AIR SEA DIR/SP/G HT/PER HT/PER/DIR (UTC) (F) (DEG/KT/KT) (MB) (FT/S) (FT/S/D) BUOY 41004 0410 75 73 190/ 14/ 17 1012.9 BUOY 41008 0350 73 72 190/ 12/ 12 1012.9R 3/12 2/130/12 FOLLY BEACH CMAN 0400 73 210/ 12/ 13 1013.8R CAPERS NEARSHORE 0408 73 72 230/ 12/ 16 1013.0R FRIPP NEARSHORE 0408 73 74 220/ 10/ 14 1012.7S STATION/POSITION TIME TEMP WIND PRES WAVE SWELL AIR SEA DIR/SP/G HT/PER HT/PER/DIR (UTC) (F) (DEG/KT/KT) (MB) (FT/S) (FT/S/D) 5E ST. MARYS GA 0400 72 N/A 3/ 5 2/ 90/11 FRYING PAN BUOY 0410 74 73 210/ 16/ 19 1012.5 BUOY 41025 0350 75 75 270/ 17/ 19 1012.2R 6/ 6 2/100/11 CAPE LOOKOUT NC 0400 70 320/ 10/ 13 1012.7R BUOY 41002 0350 72 75 180/ 14/ 16 1015.4S 4/13 3/ 30/13 BUOY 41010 0410 75 77 150/ 17/ 19 1013.8 ST AUGUSTINE FL 0400 74 76 170/ 17/ 19 1013.3F $$

USA.gov is the U.S. government's official web portal to all federal, state and local government web resources and services.